Flag Weather past 2 weeks in Güssing, Burgenland, Austria

Now
40 °F

Quite cool.


Feels Like: 40 °F
Forecast: 29 / 40 °F
Wind: 2 mph from Northeast

Location: Murska Sobota

Current Time: Nov 25, 2014 at 10:13:02 PM

Latest Report: Nov 25, 2014 at 9:00 PM


Visibility: N/A

Pressure: 30.34 "Hg

Humidity: 96%

Dew point: 39 °F

Location of GüssingLocation

Historic Weather in Güssing — Graph

°F

Güssing temperature yesterday

Maximum temperature yesterday: 40 °F (at 4:00 PM)
Minimum temperature yesterday: 37 °F (at 11:00 PM)
Average temperature yesterday: 39 °F

Past Weeks' High & Low Weather Summary

 TemperatureHumidityPressure
High66 °F (Nov 11, 3:00 PM)100% (Nov 15, 8:00 PM)30.46 "Hg (Nov 15, 8:00 PM)
Low32 °F (Nov 23, 6:00 AM)60% (Nov 16, 1:00 PM)29.68 "Hg (Nov 18, 6:00 AM)
Average47 °F91%30.06 "Hg
* Reported Nov 10 8:00 PM — Nov 25 8:00 PM, Güssing, Weather by CustomWeather, © 2014

Note: Actual official high and low records may vary slightly from our data, if they occured in-between our weather recording intervals... More about our weather records

Advertising

Güssing weather history for previous 24 hours

 ConditionsComfort  
Time TempWeatherWind HumidityBarometerVisibility
8:00 PM
Nov 25
40 °FQuite cool.2 mph93%30.34 "HgN/A
7:00 PM41 °FQuite cool.1 mph92%30.34 "HgN/A
6:00 PM41 °FQuite cool.1 mph89%30.34 "HgN/A
5:00 PM41 °FQuite cool.2 mph87%30.34 "HgN/A
4:00 PM41 °FQuite cool.2 mph85%30.34 "HgN/A
3:00 PM42 °FQuite cool.2 mph84%30.32 "HgN/A
2:00 PM42 °FFog.2 mph85%30.32 "Hg1 mi
1:00 PM42 °FFog.1 mph85%30.33 "Hg1 mi
12:00 PM41 °FQuite cool.2 mph87%30.35 "HgN/A
11:00 AM40 °FQuite cool.1 mph89%30.37 "HgN/A
10:00 AM39 °FChilly.1 mph92%30.38 "HgN/A
9:00 AM37 °FChilly.1 mph98%30.37 "HgN/A
8:00 AM35 °FFog.2 mph99%30.38 "Hg1 mi
7:00 AM33 °FFog.No wind98%30.38 "Hg1 mi
6:00 AM34 °FChilly.1 mph98%30.37 "HgN/A
5:00 AM35 °FChilly.1 mph98%30.37 "HgN/A
4:00 AM35 °FChilly.1 mph98%30.37 "HgN/A
3:00 AM35 °FChilly.1 mph98%30.37 "HgN/A
2:00 AM35 °FChilly.1 mph97%30.36 "HgN/A
1:00 AM36 °FChilly.1 mph97%30.36 "HgN/A
12:00 AM37 °FChilly.1 mph97%30.37 "HgN/A
11:00 PM
Nov 24
37 °FChilly.1 mph96%30.37 "HgN/A
10:00 PM38 °FChilly.1 mph94%30.38 "HgN/A
Weather by CustomWeather, © 2014

See weather overviewHow to use our weather pages